Location: Ash Shall?l al Awwal
(24.0167°N, 32.8667°E)
Time: 18:35:17
(UTC+00:00)

Delta 2 Rocket - Pass Details

Date: 02 March 2021
Orbit: 890 x 1677 km, 26.4° (Epoch: 09 April)

Event Time Altitude Azimuth Distance (km) Brightness Sun altitude
Rises 17:51:50 0° 262° (W) 3,610 8.1 -28.2°
Reaches altitude 10° 17:54:31 10° 263° (W) 2,607 7.1 -28.8°
Enters shadow 18:00:16 77° 300° (WNW) 911 3.8 -30.1°
